Regional Weather Roundup
Issued by NWS Newport/Morehead, NC

Current Version | Previous Version | Text Only | Print | Product List | Glossary On
Versions: 1 2 3 4 5 6 7 8 9 10 11 12 13 14 15 16 17 18 19 20 21 22 23 24 25 26 27 28 29 30 31 32 33 34 35 36 37 38 39 40 41 42 43 44 45 46 47 48 49 50
000 ASUS42 KMHX 012224 RWRMHX WEATHER ROUNDUP FOR EASTERN NORTH CAROLINA NATIONAL WEATHER SERVICE NEWPORT/MOREHEAD CITY NC 500 PM EST SUN MAR 01 2015 NOTE: "FAIR" INDICATES FEW OR NO CLOUDS BELOW 12,000 FEET WITH NO SIGNIFICANT WEATHER AND/OR OBSTRUCTIONS TO VISIBILITY NCZ015>017-031-032-045>047-102-103-012300- NORTH COAST CITY SKY/WX TMP DP RH WIND PRES REMARKS EDENTON DRIZZLE 41 40 97 CALM 30.34F ELIZABETH CITY RAIN 41 39 93 NE6 30.33F VSB 1 KITTY HAWK DRIZZLE 50 50 100 SE6 30.33F MANTEO LGT RAIN 46 45 93 S8G17 30.34F $$ NCZ045>047-081-094-103-104-012300- CENTRAL COAST CITY SKY/WX TMP DP RH WIND PRES REMARKS FRISCO LGT RAIN 52 50 93 S9 30.35F SWANQUARTER N/A 46 N/A N/A W6 30.30S $$ NCZ095-097-098-100-101-012300- SOUTHERN COAST CITY SKY/WX TMP DP RH WIND PRES REMARKS BEAUFORT CLOUDY 61 56 83 S10 30.35F CEDAR ISLAND N/A 63 N/A N/A S8G17 30.39S JACKSONVILLE CLOUDY 49 46 90 NW5 30.36S PINEY ISLAND N/A N/A N/A N/A MISG 30.34F WILMINGTON CLOUDY 50 46 86 N5 30.36F $$ NCZ011>013-027>030-043-044-078>080-089-090>093-098-012300- COASTAL PLAIN CITY SKY/WX TMP DP RH WIND PRES REMARKS AHOSKIE RAIN 32 31 97 CALM 30.42R CLINTON CLOUDY 38 37 99 NW5 30.40F ELIZABETHTOWN HVY RAIN 40 39 97 CALM 30.38F GOLDSBORO CLOUDY 37 36 99 NW3 30.38F GREENVILLE CLOUDY 36 36 100 NW6 30.40R HAVELOCK RAIN 52 49 89 CALM 30.37S KENANSVILLE CLOUDY 38 37 97 NW3 30.40S KINSTON CLOUDY 37 37 100 NW7 30.40S FOG NEW BERN CLOUDY 49 46 90 NW3 30.37F RICHLANDS CLOUDY 45 39 81 NW5 30.38S ROCKY MOUNT LGT RAIN 34 33 96 N5 30.40F FOG WASHINGTON CLOUDY 38 37 97 NW7 30.39R WHITEVILLE RAIN 41 39 94 CALM 30.39S $$ AMZ130-135-150-152-154-156-158-170-250-252-270-ANZ085-086-088-633-658-670-012300- MARINE OBSERVATIONS STATION/POSITION TIME TEMP WIND PRES WAVE SWELL AIR SEA DIR/SP/G HT/PER HT/PER (UTC) (F) (DEG/KT/KT) (MB) (FT/S) (FT/S) CHESAPEAKE LIGHT 2200 33 20/ 12/ 13 1028.6 64 E VA BEACH 2150 61 62 170/ 21/ 27 1026.9 5/ 5 2/ 8 DUCK 2100 35 35 350/ 9/ 10 1027.6 2 E DUCK 2211 34 N/A 3/ 5 10 NE DUCK 2122 36 N/A 4/ 5 OREGON INLET 2100 47 39 120/ 6/ 9 1028.1 HATTERAS CG 2106 52 40 160/ 9/ 14 1028.5 CAPE LOOKOUT 2200 57 170/ 12/ 13 1027.4 BEAUFORT LAB 2200 53 43 180/ 6/ 7 1026.5 27 SE WRIGHTSVLE NOT AVBL 5 SE WRIGHTSVLE NOT AVBL 225 S CAPE HAT 2150 69 72 120/ 17/ 19 1029.5 8/10 5/10 41 SE CHARLESTON 2150 56 69 10/ 12/ 14 1027.3 7/ 8 5/ 8 $$

USA.gov is the U.S. government's official web portal to all federal, state and local government web resources and services.